This is the latest recevied weather packets stored in our database for station/object EI4HQ. If no packets are shown the sender has not sent any weather packets the latest 1 day(s).
| Time | Temp. | Humidity | Pressure | Rain* | Wind** | Luminosity | Snow |
|---|---|---|---|---|---|---|---|
| 1778023623 | 10° C | 81% | 1016.2 hPa | 0 mm | 2.68 m/s, 337° | - | - |
| 1778023083 | 10° C | 81% | 1016.2 hPa | 0 mm | 2.24 m/s, 335° | - | - |
| 1778022543 | 10° C | 80% | 1016.3 hPa | 0 mm | 2.24 m/s, 336° | - | - |
| 1778022003 | 10° C | 80% | 1016.3 hPa | 0 mm | 1.79 m/s, 335° | - | - |
| 1778021643 | 10° C | 80% | 1016.3 hPa | 0 mm | 2.24 m/s, 335° | - | - |
| 1778021103 | 10° C | 79% | 1016.3 hPa | 0 mm | 1.79 m/s, 337° | - | - |
| 1778020563 | 10° C | 79% | 1016.4 hPa | 0 mm | 1.79 m/s, 334° | - | - |
| 1778020023 | 10.56° C | 79% | 1016.4 hPa | 0 mm | 2.24 m/s, 336° | - | - |
| 1778019483 | 10.56° C | 78% | 1016.5 hPa | 0 mm | 1.79 m/s, 336° | - | - |
| 1778018943 | 10.56° C | 78% | 1016.5 hPa | 0 mm | 1.34 m/s, 335° | - | - |
| 1778018403 | 10.56° C | 78% | 1016.5 hPa | 0 mm | 1.79 m/s, 336° | - | - |
| 1778018043 | 10.56° C | 78% | 1016.6 hPa | 0 mm | 2.24 m/s, 336° | - | - |
| 1778017503 | 10.56° C | 77% | 1016.6 hPa | 0 mm | 2.24 m/s, 337° | - | - |
| 1778016963 | 10.56° C | 77% | 1016.6 hPa | 0 mm | 2.24 m/s, 335° | - | - |
| 1778016423 | 10.56° C | 77% | 1016.7 hPa | 0 mm | 2.24 m/s, 336° | - | - |
| 1778015883 | 11.11° C | 76% | 1016.6 hPa | 0 mm | 2.24 m/s, 334° | - | - |
| 1778015343 | 11.11° C | 75% | 1016.6 hPa | 0 mm | 1.79 m/s, 336° | - | - |
| 1778014803 | 11.11° C | 74% | 1016.5 hPa | 0 mm | 1.79 m/s, 338° | - | - |
| 1778014443 | 11.11° C | 74% | 1016.5 hPa | 0 mm | 1.79 m/s, 337° | - | - |
| 1778013903 | 11.67° C | 73% | 1016.5 hPa | 0 mm | 1.79 m/s, 335° | - | - |
| 1778013363 | 11.67° C | 72% | 1016.4 hPa | 0 mm | 1.79 m/s, 340° | - | - |
| 1778012823 | 11.67° C | 72% | 1016.4 hPa | 0 mm | 1.79 m/s, 350° | - | - |
| 1778012283 | 11.67° C | 71% | 1016.5 hPa | 0 mm | 1.34 m/s, 347° | - | - |
| 1778011743 | 11.67° C | 71% | 1016.4 hPa | 0 mm | 1.79 m/s, 342° | - | - |
| 1778011203 | 11.67° C | 70% | 1016.5 hPa | 0 mm | 1.79 m/s, 343° | - | - |
* Rain latest hour (hover to see other rain measurements)
** Current wind speed in m/s (hover to see current wind gust speed)